Hourly Weather Gol

Today, 13 May, Thursday

Time Temperature Precipitation Wind Pressure Humidity
00:00 +4°C° 0 mm 1 mps 689 mmHg 97%
01:00 +3°C° 0 mm 1 mps 689 mmHg 97%
02:00 +4°C° 0 mm 1 mps 689 mmHg 97%
03:00 +4°C° 0 mm 1 mps 689 mmHg 97%
04:00 +4°C° 0 mm 1 mps 689 mmHg 97%
05:00 +5°C° 0 mm 1 mps 689 mmHg 95%
06:00 +6°C° 0 mm 1 mps 689 mmHg 93%
07:00 +6°C° 0 mm 1 mps 690 mmHg 92%
08:00 +7°C° 0 mm 1 mps 690 mmHg 89%
09:00 +8°C° 0 mm 1 mps 690 mmHg 87%
10:00 +9°C° 0 mm 1 mps 690 mmHg 85%
11:00 +10°C° 0 mm 1 mps 690 mmHg 82%
12:00 +11°C° 0 mm 1 mps 690 mmHg 80%
13:00 +12°C° 0 mm 1 mps 690 mmHg 77%
14:00 +11°C° 0 mm 1 mps 689 mmHg 79%
15:00 +11°C° 0 mm 1 mps 689 mmHg 81%
16:00 +11°C° 0 mm 1 mps 689 mmHg 83%
17:00 +10°C° 0 mm 1 mps 689 mmHg 86%
18:00 +10°C° 0 mm 1 mps 689 mmHg 89%
19:00 +9°C° 0 mm 1 mps 689 mmHg 91%
20:00 +9°C° 0.1 mm 1 mps 689 mmHg 92%
21:00 +8°C° 0.1 mm 1 mps 689 mmHg 93%
22:00 +8°C° 0.1 mm 1 mps 689 mmHg 94%
23:00 +8°C° 0.2 mm 1 mps 689 mmHg 94%

Tomorrow, 14 May, Friday

Time Temperature Precipitation Wind Pressure Humidity
00:00 +8°C° 0.2 mm 1 mps 689 mmHg 94%
01:00 +8°C° 0.2 mm 1 mps 688 mmHg 94%
02:00 +7°C° 0.4 mm 1 mps 688 mmHg 95%
03:00 +7°C° 0.4 mm 1 mps 688 mmHg 96%
04:00 +6°C° 0.4 mm 0 mps 688 mmHg 98%
05:00 +8°C° 0 mm 1 mps 688 mmHg 96%
06:00 +8°C° 0 mm 1 mps 689 mmHg 94%
07:00 +9°C° 0 mm 1 mps 689 mmHg 93%
08:00 +10°C° 0.1 mm 1 mps 689 mmHg 91%
09:00 +10°C° 0.1 mm 1 mps 689 mmHg 90%
10:00 +11°C° 0.1 mm 1 mps 689 mmHg 88%
11:00 +11°C° 0.2 mm 1 mps 688 mmHg 87%
12:00 +11°C° 0.2 mm 1 mps 688 mmHg 85%
13:00 +11°C° 0.2 mm 1 mps 688 mmHg 84%
14:00 +12°C° 0.3 mm 1 mps 688 mmHg 81%
15:00 +12°C° 0.3 mm 1 mps 688 mmHg 78%
16:00 +13°C° 0.3 mm 1 mps 688 mmHg 76%
17:00 +12°C° 0.1 mm 1 mps 688 mmHg 76%
18:00 +12°C° 0.1 mm 1 mps 687 mmHg 77%
19:00 +12°C° 0.1 mm 1 mps 687 mmHg 78%
20:00 +11°C° 0.1 mm 1 mps 687 mmHg 81%
21:00 +10°C° 0.1 mm 1 mps 687 mmHg 85%
22:00 +9°C° 0.1 mm 1 mps 687 mmHg 89%
23:00 +8°C° 0.6 mm 1 mps 687 mmHg 92%

Day after tomorrow, 15 May, Saturday

Time Temperature Precipitation Wind Pressure Humidity
00:00 +8°C° 0.6 mm 1 mps 687 mmHg 94%
01:00 +8°C° 0.6 mm 1 mps 687 mmHg 97%
02:00 +8°C° 1 mm 1 mps 687 mmHg 97%
03:00 +8°C° 1 mm 1 mps 686 mmHg 97%
04:00 +8°C° 1 mm 1 mps 686 mmHg 97%
05:00 +8°C° 0.5 mm 1 mps 686 mmHg 96%
06:00 +7°C° 0.5 mm 1 mps 686 mmHg 96%
07:00 +7°C° 0.5 mm 1 mps 686 mmHg 96%
08:00 +8°C° 0.1 mm 1 mps 686 mmHg 94%
09:00 +8°C° 0.1 mm 1 mps 686 mmHg 92%
10:00 +8°C° 0.1 mm 1 mps 686 mmHg 90%
11:00 +8°C° 0.2 mm 1 mps 685 mmHg 90%
12:00 +8°C° 0.2 mm 1 mps 685 mmHg 90%
13:00 +8°C° 0.2 mm 1 mps 685 mmHg 90%
14:00 +8°C° 0.5 mm 1 mps 685 mmHg 91%
15:00 +7°C° 0.5 mm 1 mps 685 mmHg 93%
16:00 +7°C° 0.5 mm 1 mps 684 mmHg 94%
17:00 +7°C° 0.9 mm 1 mps 684 mmHg 95%
18:00 +6°C° 0.9 mm 1 mps 684 mmHg 95%
19:00 +5°C° 0.9 mm 0 mps 684 mmHg 96%
20:00 +5°C° 0.7 mm 0 mps 684 mmHg 97%
21:00 +5°C° 0.7 mm 0 mps 684 mmHg 97%
22:00 +4°C° 0.7 mm 0 mps 685 mmHg 97%
23:00 +4°C° 0.4 mm 0 mps 685 mmHg 98%

16 May, Sunday

Time Temperature Precipitation Wind Pressure Humidity
00:00 +4°C° 0.4 mm 0 mps 685 mmHg 98%
01:00 +5°C° 0.4 mm 1 mps 685 mmHg 98%
02:00 +5°C° 0.2 mm 1 mps 684 mmHg 98%
03:00 +5°C° 0.2 mm 1 mps 684 mmHg 98%
04:00 +5°C° 0.2 mm 1 mps 684 mmHg 98%
05:00 +6°C° 0.1 mm 1 mps 684 mmHg 97%
06:00 +6°C° 0.1 mm 1 mps 685 mmHg 96%
07:00 +6°C° 0.1 mm 1 mps 685 mmHg 96%
08:00 +6°C° 0.1 mm 1 mps 685 mmHg 95%
09:00 +6°C° 0.1 mm 2 mps 685 mmHg 94%
10:00 +6°C° 0.1 mm 2 mps 686 mmHg 93%
11:00 +7°C° 0.1 mm 2 mps 686 mmHg 88%
12:00 +7°C° 0.1 mm 2 mps 686 mmHg 83%
13:00 +8°C° 0.1 mm 2 mps 686 mmHg 77%
14:00 +9°C° 0.2 mm 2 mps 686 mmHg 75%
15:00 +9°C° 0.2 mm 2 mps 686 mmHg 74%
16:00 +9°C° 0.2 mm 2 mps 686 mmHg 72%
17:00 +9°C° 0.2 mm 2 mps 686 mmHg 74%
18:00 +8°C° 0.2 mm 2 mps 686 mmHg 76%
19:00 +8°C° 0.2 mm 2 mps 686 mmHg 79%
20:00 +7°C° 0.4 mm 2 mps 686 mmHg 83%
21:00 +7°C° 0.4 mm 1 mps 686 mmHg 88%
22:00 +7°C° 0.4 mm 1 mps 686 mmHg 93%
23:00 +6°C° 1.1 mm 1 mps 686 mmHg 94%

17 May, Monday

Time Temperature Precipitation Wind Pressure Humidity
00:00 +6°C° 1.1 mm 1 mps 686 mmHg 96%
01:00 +6°C° 1.1 mm 1 mps 686 mmHg 97%
02:00 +6°C° 0.6 mm 1 mps 686 mmHg 98%
03:00 +6°C° 0.6 mm 1 mps 686 mmHg 98%
04:00 +6°C° 0.6 mm 1 mps 686 mmHg 98%
05:00 +6°C° 0.2 mm 1 mps 687 mmHg 97%
06:00 +6°C° 0.2 mm 1 mps 687 mmHg 96%
07:00 +6°C° 0.2 mm 1 mps 687 mmHg 96%
08:00 +6°C° 1.4 mm 1 mps 687 mmHg 95%
09:00 +6°C° 1.4 mm 1 mps 687 mmHg 95%
10:00 +6°C° 1.4 mm 1 mps 687 mmHg 95%
11:00 +6°C° 0.6 mm 1 mps 687 mmHg 95%
12:00 +6°C° 0.6 mm 1 mps 688 mmHg 95%
13:00 +6°C° 0.6 mm 1 mps 688 mmHg 95%
14:00 +6°C° 0.1 mm 1 mps 688 mmHg 95%
15:00 +6°C° 0.1 mm 1 mps 688 mmHg 95%
16:00 +6°C° 0.1 mm 1 mps 688 mmHg 95%
17:00 +6°C° 0 mm 1 mps 688 mmHg 94%
18:00 +6°C° 0 mm 1 mps 687 mmHg 93%
19:00 +5°C° 0 mm 0 mps 687 mmHg 93%
20:00 +6°C° 0 mm 1 mps 687 mmHg 93%
21:00 +6°C° 0 mm 1 mps 687 mmHg 94%
22:00 +5°C° 0 mm 1 mps 687 mmHg 94%
23:00 +5°C° 0 mm 1 mps 686 mmHg 94%

18 May, Tuesday

Time Temperature Precipitation Wind Pressure Humidity
00:00 +5°C° 0 mm 1 mps 686 mmHg 94%
01:00 +5°C° 0 mm 1 mps 685 mmHg 93%
02:00 +5°C° 0 mm 1 mps 685 mmHg 93%
03:00 +4°C° 0 mm 2 mps 684 mmHg 92%
04:00 +4°C° 0 mm 2 mps 684 mmHg 91%
05:00 +4°C° 0.7 mm 2 mps 683 mmHg 91%
06:00 +5°C° 0.7 mm 1 mps 683 mmHg 92%
07:00 +6°C° 0.7 mm 1 mps 682 mmHg 92%
08:00 +5°C° 1.7 mm 1 mps 682 mmHg 93%
09:00 +4°C° 1.7 mm 2 mps 681 mmHg 95%
10:00 +4°C° 1.7 mm 2 mps 681 mmHg 96%
11:00 +4°C° 1.6 mm 2 mps 681 mmHg 96%
12:00 +5°C° 1.6 mm 1 mps 681 mmHg 96%
13:00 +5°C° 1.6 mm 1 mps 680 mmHg 96%
14:00 +6°C° 0.9 mm 1 mps 680 mmHg 95%
15:00 +6°C° 0.9 mm 1 mps 680 mmHg 95%
16:00 +5°C° 0.9 mm 2 mps 680 mmHg 94%
17:00 +5°C° 0.4 mm 2 mps 680 mmHg 94%
18:00 +5°C° 0.4 mm 2 mps 680 mmHg 93%
19:00 +5°C° 0.4 mm 2 mps 680 mmHg 93%
20:00 +5°C° 0 mm 2 mps 680 mmHg 93%
21:00 +5°C° 0 mm 2 mps 681 mmHg 92%
22:00 +4°C° 0 mm 2 mps 681 mmHg 92%
23:00 +4°C° 0 mm 2 mps 681 mmHg 92%
Show more